N792JC -KPIE

Flight info

Callsign N792JC
Flight time N/A
Altitude 3000
Route VOR B
Aircraft C182/L-DOV/C

Departure

Time N/A
Airport -

Arrival

Time 2026-04-30 01:30
Airport St. Petersburg Clearwater International Airport (KPIE)
Time Latitude Longitude Altitude Speed Heading
2026-04-30 01:07 27.98085 -82.80732 1619 ft 127 kts 47°
2026-04-30 01:07 27.98301 -82.79787 1627 ft 127 kts 86°
2026-04-30 01:07 27.98583 -82.78870 1644 ft 121 kts 37°
2026-04-30 01:07 27.99206 -82.78292 1753 ft 114 kts 37°
2026-04-30 01:08 27.99800 -82.77696 1914 ft 120 kts 37°
2026-04-30 01:08 28.00438 -82.77039 2170 ft 127 kts 37°
2026-04-30 01:08 28.01091 -82.76358 2427 ft 128 kts 38°
2026-04-30 01:08 28.01748 -82.75667 2686 ft 129 kts 39°
2026-04-30 01:09 28.02421 -82.74961 2935 ft 132 kts 41°
2026-04-30 01:09 28.03120 -82.74228 3027 ft 144 kts 40°
2026-04-30 01:09 28.03855 -82.73455 3041 ft 143 kts 41°
2026-04-30 01:09 28.04574 -82.72696 3029 ft 139 kts 40°
2026-04-30 01:10 28.05275 -82.71956 3026 ft 136 kts 41°
2026-04-30 01:10 28.05967 -82.71233 3025 ft 135 kts 42°
2026-04-30 01:10 28.06667 -82.70497 3019 ft 139 kts 41°
2026-04-30 01:10 28.07372 -82.69757 3017 ft 137 kts 40°
2026-04-30 01:11 28.08062 -82.69027 3020 ft 134 kts 41°
2026-04-30 01:11 28.08748 -82.68301 3026 ft 137 kts 40°
2026-04-30 01:11 28.09451 -82.67568 3016 ft 139 kts 41°
2026-04-30 01:11 28.10155 -82.66825 3024 ft 138 kts 41°
2026-04-30 01:12 28.10851 -82.66091 3017 ft 135 kts 39°
2026-04-30 01:12 28.11535 -82.65371 3017 ft 133 kts 40°
2026-04-30 01:12 28.12278 -82.64788 3010 ft 130 kts 13°
2026-04-30 01:12 28.13159 -82.64667 3006 ft 129 kts
2026-04-30 01:13 28.14059 -82.64541 3004 ft 130 kts
2026-04-30 01:13 28.14956 -82.64417 3000 ft 129 kts
2026-04-30 01:13 28.15792 -82.64578 2997 ft 123 kts 323°
2026-04-30 01:13 28.16331 -82.65291 2996 ft 119 kts 288°
2026-04-30 01:14 28.16375 -82.66186 2996 ft 112 kts 255°
2026-04-30 01:14 28.15959 -82.66921 2990 ft 115 kts 221°
2026-04-30 01:14 28.15208 -82.67247 2999 ft 123 kts 187°
2026-04-30 01:14 28.14368 -82.66942 3008 ft 135 kts 149°
2026-04-30 01:15 28.13625 -82.66266 3010 ft 139 kts 145°
2026-04-30 01:15 28.12877 -82.65598 3008 ft 135 kts 146°
2026-04-30 01:15 28.12079 -82.65117 3017 ft 128 kts 177°
2026-04-30 01:15 28.11229 -82.65212 3021 ft 124 kts 192°
2026-04-30 01:16 28.10372 -82.65347 3023 ft 125 kts 194°
2026-04-30 01:16 28.09511 -82.65487 3025 ft 126 kts 192°
2026-04-30 01:16 28.08646 -82.65621 2943 ft 118 kts 191°
2026-04-30 01:16 28.07888 -82.65737 2789 ft 103 kts 192°
2026-04-30 01:17 28.07205 -82.65843 2648 ft 97 kts 195°
2026-04-30 01:17 28.06544 -82.65948 2500 ft 94 kts 195°
2026-04-30 01:17 28.05914 -82.66049 2354 ft 89 kts 196°
2026-04-30 01:17 28.05330 -82.66139 2200 ft 82 kts 195°
2026-04-30 01:18 28.04780 -82.66222 2045 ft 79 kts 197°
2026-04-30 01:18 28.04216 -82.66316 1913 ft 83 kts 197°
2026-04-30 01:18 28.03628 -82.66411 1800 ft 87 kts 197°
2026-04-30 01:18 28.03022 -82.66506 1696 ft 89 kts 196°
2026-04-30 01:19 28.02397 -82.66600 1642 ft 94 kts 195°
2026-04-30 01:19 28.01740 -82.66707 1645 ft 101 kts 195°
2026-04-30 01:19 28.01027 -82.66822 1643 ft 108 kts 193°
2026-04-30 01:19 28.00269 -82.66938 1640 ft 112 kts 195°
2026-04-30 01:20 27.99485 -82.67062 1637 ft 115 kts 195°
2026-04-30 01:20 27.98717 -82.67180 1521 ft 106 kts 195°
2026-04-30 01:20 27.98015 -82.67290 1363 ft 99 kts 196°
2026-04-30 01:20 27.97339 -82.67397 1185 ft 96 kts 195°
2026-04-30 01:21 27.96689 -82.67499 1017 ft 93 kts 196°
2026-04-30 01:21 27.96061 -82.67600 863 ft 89 kts 196°
2026-04-30 01:21 27.95733 -82.67650 778 ft 87 kts 196°
2026-04-30 01:26 27.95502 -82.67686 732 ft 84 kts 195°
2026-04-30 01:26 27.94966 -82.67771 712 ft 74 kts 194°
2026-04-30 01:26 27.94371 -82.67859 800 ft 100 kts 193°
2026-04-30 01:26 27.93612 -82.67984 824 ft 118 kts 193°
2026-04-30 01:27 27.92862 -82.68099 743 ft 100 kts 195°
2026-04-30 01:27 27.92229 -82.68190 708 ft 83 kts 195°
2026-04-30 01:27 27.91698 -82.68263 680 ft 74 kts 189°
2026-04-30 01:27 27.91159 -82.68169 601 ft 80 kts 180°
2026-04-30 01:28 27.90634 -82.68047 620 ft 75 kts 177°
2026-04-30 01:28 27.90130 -82.67908 529 ft 78 kts 168°
2026-04-30 01:28 27.89552 -82.67729 599 ft 91 kts 171°
2026-04-30 01:28 27.88962 -82.67619 634 ft 84 kts 195°
2026-04-30 01:29 27.88590 -82.68043 651 ft 73 kts 260°
2026-04-30 01:29 27.88793 -82.68525 657 ft 73 kts 332°
2026-04-30 01:29 27.89303 -82.68537 347 ft 76 kts 355°
2026-04-30 01:29 27.89785 -82.68618 88 ft 65 kts 345°
2026-04-30 01:30 27.90228 -82.68706 22 ft 61 kts 343°
2026-04-30 01:30 27.90589 -82.68771 19 ft 43 kts 348°
2026-04-30 01:30 27.90848 -82.68816 14 ft 35 kts 352°
2026-04-30 01:30 27.91258 -82.68887 25 ft 84 kts 348°
2026-04-30 01:31 27.91890 -82.68954 250 ft 96 kts 345°
2026-04-30 01:31 27.92561 -82.69078 617 ft 99 kts 342°
2026-04-30 01:31 27.93218 -82.69271 994 ft 94 kts 324°
2026-04-30 01:31 27.93507 -82.69872 1133 ft 92 kts 266°
2026-04-30 01:32 27.93294 -82.70533 1208 ft 86 kts 242°
2026-04-30 01:32 27.92761 -82.70881 1164 ft 102 kts 193°
2026-04-30 01:32 27.92074 -82.70875 1230 ft 98 kts 184°
2026-04-30 01:32 27.91375 -82.70769 1242 ft 101 kts 177°
2026-04-30 01:33 27.90669 -82.70597 1263 ft 103 kts 175°
2026-04-30 01:33 27.90011 -82.70505 1148 ft 93 kts 189°
2026-04-30 01:33 27.89392 -82.70527 1140 ft 89 kts 191°
2026-04-30 01:33 27.88714 -82.70457 1001 ft 104 kts 185°
2026-04-30 01:34 27.88009 -82.70476 1029 ft 98 kts 180°
2026-04-30 01:34 27.87406 -82.70158 929 ft 106 kts 135°
2026-04-30 01:34 27.87162 -82.69339 743 ft 116 kts 77°
2026-04-30 01:34 27.87722 -82.68768 650 ft 107 kts 17°
2026-04-30 01:35 27.88326 -82.68510 557 ft 79 kts
2026-04-30 01:35 27.88844 -82.68469 376 ft 76 kts 347°
2026-04-30 01:35 27.89374 -82.68564 200 ft 80 kts 342°
2026-04-30 01:35 27.89912 -82.68639 60 ft 74 kts 340°
2026-04-30 01:36 27.90355 -82.68728 19 ft 57 kts 339°
2026-04-30 01:36 27.90707 -82.68793 18 ft 43 kts 348°
2026-04-30 01:36 27.90961 -82.68834 13 ft 32 kts 350°
2026-04-30 01:36 27.91342 -82.68900 31 ft 78 kts 348°
2026-04-30 01:37 27.91946 -82.68975 243 ft 93 kts 352°
2026-04-30 01:37 27.92598 -82.69070 658 ft 86 kts 329°
2026-04-30 01:37 27.92955 -82.69567 995 ft 89 kts 284°
2026-04-30 01:37 27.92960 -82.70245 1311 ft 94 kts 268°
2026-04-30 01:38 27.92937 -82.70966 1642 ft 91 kts 269°
2026-04-30 01:38 27.92925 -82.71700 2001 ft 95 kts 268°
2026-04-30 01:38 27.92864 -82.72457 2361 ft 103 kts 263°
2026-04-30 01:38 27.92778 -82.73294 2610 ft 111 kts 262°
2026-04-30 01:39 27.92643 -82.74155 2699 ft 113 kts 251°
2026-04-30 01:39 27.92454 -82.75083 2726 ft 128 kts 258°
2026-04-30 01:39 27.92259 -82.76079 2882 ft 128 kts 257°
2026-04-30 01:39 27.92059 -82.77026 3174 ft 123 kts 255°
2026-04-30 01:40 27.91839 -82.78059 2950 ft 149 kts 256°
2026-04-30 01:40 27.91588 -82.79149 3025 ft 142 kts 254°
2026-04-30 01:40 27.91313 -82.80214 3061 ft 134 kts 252°
2026-04-30 01:40 27.91017 -82.81208 2949 ft 130 kts 251°
2026-04-30 01:41 27.90807 -82.82177 2678 ft 129 kts 257°
2026-04-30 01:41 27.90624 -82.83044 2718 ft 103 kts 251°
2026-04-30 01:41 27.90456 -82.83865 2422 ft 124 kts 261°
2026-04-30 01:41 27.90373 -82.84858 2597 ft 122 kts 266°
2026-04-30 01:42 27.90299 -82.85771 2920 ft 116 kts 263°
2026-04-30 01:42 27.90120 -82.86679 3020 ft 123 kts 255°
2026-04-30 01:42 27.89886 -82.87607 3247 ft 124 kts 252°
2026-04-30 01:42 27.89587 -82.88534 3432 ft 124 kts 246°
2026-04-30 01:43 27.89265 -82.89459 3587 ft 126 kts 247°
2026-04-30 01:43 27.88903 -82.90401 3666 ft 135 kts 245°
2026-04-30 01:43 27.88644 -82.91041 3769 ft 133 kts 244°
2026-04-30 01:43 27.88169 -82.92134 3981 ft 133 kts 241°
2026-04-30 01:44 27.87703 -82.93064 4080 ft 135 kts 237°
2026-04-30 01:44 27.87199 -82.93911 4289 ft 130 kts 228°
2026-04-30 01:44 27.86590 -82.94705 4357 ft 138 kts 227°
2026-04-30 01:44 27.86084 -82.95340 4587 ft 79 kts 226°
2026-04-30 01:45 27.85853 -82.95727 4028 ft 51 kts 246°
2026-04-30 01:45 27.85318 -82.96548 2901 ft 146 kts 237°
2026-04-30 01:45 27.84799 -82.97391 3336 ft 122 kts 233°
2026-04-30 01:45 27.84306 -82.98133 3699 ft 110 kts 233°
2026-04-30 01:46 27.83858 -82.98794 4022 ft 111 kts 230°
2026-04-30 01:46 27.83410 -82.99408 4230 ft 79 kts 231°
2026-04-30 01:46 27.83232 -82.99872 4025 ft 75 kts 314°
2026-04-30 01:46 27.83231 -82.99693 3161 ft 98 kts 257°
2026-04-30 01:47 27.83296 -82.99553 2373 ft 107 kts 209°
2026-04-30 01:47 27.82770 -83.00111 2275 ft 102 kts 233°
2026-04-30 01:47 27.82294 -83.00798 2335 ft 123 kts 236°
2026-04-30 01:47 27.81791 -83.01641 2364 ft 133 kts 239°
2026-04-30 01:48 27.81283 -83.02520 2432 ft 137 kts 238°
2026-04-30 01:48 27.80737 -83.03454 2325 ft 145 kts 240°
2026-04-30 01:48 27.80173 -83.04392 2372 ft 135 kts 238°
2026-04-30 01:48 27.79953 -83.04787 2829 ft 42 kts 288°
2026-04-30 01:49 27.80119 -83.04615 1888 ft 100 kts 212°
2026-04-30 01:49 27.80095 -83.05440 703 ft 138 kts 276°
2026-04-30 01:49 27.80084 -83.06450 175 ft 122 kts 269°
2026-04-30 01:49 27.80126 -83.06751 308 ft 51 kts 304°